| time (UTC) | temp F | wind direction | speed MPH | gust MPH | rain 1hr in | rain 24hr in | rain mn in | humidity % | barometer mb |
| 20260507114514 | 73 | 209 | 8.0 | 16.0 | 0.00 | 0.00 | 0.00 | 53 | 1019.7 |
| 20260507114014 | 72 | 260 | 11.0 | 16.0 | 0.00 | 0.00 | 0.00 | 53 | 1019.7 |
| 20260507113514 | 74 | 263 | 10.0 | 16.0 | 0.00 | 0.00 | 0.00 | 51 | 1019.7 |
| 20260507113014 | 74 | 279 | 9.0 | 16.0 | 0.00 | 0.00 | 0.00 | 52 | 1019.7 |
| 20260507112513 | 73 | 252 | 9.0 | 18.0 | 0.00 | 0.00 | 0.00 | 52 | 1019.6 |
| 20260507112013 | 73 | 251 | 14.0 | 18.0 | 0.00 | 0.00 | 0.00 | 51 | 1019.9 |
| 20260507111516 | 74 | 253 | 11.0 | 16.0 | 0.00 | 0.00 | 0.00 | 52 | 1019.8 |
| 20260507111012 | 73 | 213 | 12.0 | 14.0 | 0.00 | 0.00 | 0.00 | 52 | 1019.8 |
| 20260507110510 | 74 | 230 | 11.0 | 16.0 | 0.00 | 0.00 | 0.00 | 52 | 1019.7 |
| 20260507110010 | 73 | 225 | 10.0 | 15.0 | 0.00 | 0.00 | 0.00 | 56 | 1019.5 |
| 20260507105510 | 74 | 199 | 8.0 | 15.0 | 0.00 | 0.00 | 0.00 | 54 | 1019.7 |
| 20260507105009 | 73 | 265 | 7.0 | 17.0 | 0.00 | 0.00 | 0.00 | 57 | 1019.7 |
| 20260507104508 | 73 | 228 | 12.0 | 17.0 | 0.00 | 0.00 | 0.00 | 54 | 1019.6 |
| 20260507104107 | 74 | 250 | 12.0 | 16.0 | 0.00 | 0.00 | 0.00 | 52 | 1019.6 |
| 20260507103506 | 74 | 220 | 10.0 | 14.0 | 0.00 | 0.00 | 0.00 | 47 | 1019.5 |
| 20260507103006 | 73 | 254 | 8.0 | 11.0 | 0.00 | 0.00 | 0.00 | 55 | 1019.2 |
| 20260507102506 | 74 | 272 | 8.0 | 12.0 | 0.00 | 0.00 | 0.00 | 53 | 1019.2 |
| 20260507102007 | 74 | 219 | 7.0 | 12.0 | 0.00 | 0.00 | 0.00 | 53 | 1019.2 |
| 20260507101507 | 74 | 217 | 7.0 | 13.0 | 0.00 | 0.00 | 0.00 | 51 | 1019.3 |
| 20260507101006 | 73 | 262 | 10.0 | 14.0 | 0.00 | 0.00 | 0.00 | 56 | 1019.3 |
| 20260507100506 | 73 | 275 | 8.0 | 14.0 | 0.00 | 0.00 | 0.00 | 55 | 1019.3 |
| 20260507100011 | 73 | 271 | 8.0 | 12.0 | 0.00 | 0.00 | 0.00 | 55 | 1019.3 |
| 20260507095508 | 74 | 219 | 8.0 | 11.0 | 0.00 | 0.00 | 0.00 | 51 | 1019.3 |
| 20260507095004 | 74 | 243 | 7.0 | 11.0 | 0.00 | 0.00 | 0.00 | 51 | 1019.3 |
| 20260507094502 | 74 | 212 | 7.0 | 11.0 | 0.00 | 0.00 | 0.00 | 49 | 1019.3 |
| 20260507094002 | 74 | 275 | 6.0 | 11.0 | 0.00 | 0.00 | 0.00 | 48 | 1019.3 |
| 20260507093502 | 74 | 215 | 9.0 | 12.0 | 0.00 | 0.00 | 0.00 | 46 | 1019.3 |
| 20260507093006 | 74 | 260 | 8.0 | 12.0 | 0.00 | 0.00 | 0.00 | 45 | 1019.2 |
| 20260507092502 | 75 | 267 | 5.0 | 10.0 | 0.00 | 0.00 | 0.00 | 45 | 1019.3 |
| 20260507092059 | 74 | 259 | 6.0 | 9.0 | 0.00 | 0.00 | 0.00 | 46 | 1019.2 |
| 20260507091558 | 73 | 261 | 5.0 | 9.0 | 0.00 | 0.00 | 0.00 | 47 | 1019.3 |
| 20260507091058 | 73 | 263 | 8.0 | 10.0 | 0.00 | 0.00 | 0.00 | 47 | 1019.4 |
| 20260507090557 | 73 | 265 | 7.0 | 10.0 | 0.00 | 0.00 | 0.00 | 47 | 1019.2 |
| 20260507090100 | 73 | 246 | 5.0 | 9.0 | 0.00 | 0.00 | 0.00 | 46 | 1019.2 |
| 20260507085555 | 73 | 260 | 4.0 | 8.0 | 0.00 | 0.00 | 0.00 | 47 | 1019.1 |
| 20260507085056 | 73 | 221 | 5.0 | 8.0 | 0.00 | 0.00 | 0.00 | 48 | 1019.1 |
| 20260507084604 | 72 | 260 | 5.0 | 9.0 | 0.00 | 0.00 | 0.00 | 47 | 1019.2 |
| 20260507084052 | 72 | 212 | 6.0 | 9.0 | 0.00 | 0.00 | 0.00 | 47 | 1019.4 |
| 20260507083552 | 72 | 238 | 5.0 | 8.0 | 0.00 | 0.00 | 0.00 | 48 | 1019.5 |
| 20260507083052 | 72 | 227 | 4.0 | 8.0 | 0.00 | 0.00 | 0.00 | 47 | 1019.4 |
| 20260507082550 | 72 | 215 | 4.0 | 8.0 | 0.00 | 0.00 | 0.00 | 46 | 1019.4 |
| 20260507082050 | 72 | 208 | 4.0 | 8.0 | 0.00 | 0.00 | 0.00 | 47 | 1019.4 |
| 20260507081550 | 71 | 269 | 3.0 | 8.0 | 0.00 | 0.00 | 0.00 | 48 | 1019.3 |
| 20260507081049 | 71 | 233 | 5.0 | 9.0 | 0.00 | 0.00 | 0.00 | 47 | 1019.3 |
| 20260507080551 | 71 | 256 | 4.0 | 7.0 | 0.00 | 0.00 | 0.00 | 49 | 1019.4 |
| 20260507080053 | 71 | 200 | 5.0 | 9.0 | 0.00 | 0.00 | 0.00 | 50 | 1019.3 |
| 20260507075547 | 71 | 246 | 4.0 | 10.0 | 0.00 | 0.00 | 0.00 | 51 | 1019.4 |
| 20260507075046 | 70 | 273 | 7.0 | 10.0 | 0.00 | 0.00 | 0.00 | 52 | 1019.3 |
| 20260507074545 | 70 | 266 | 5.0 | 10.0 | 0.00 | 0.00 | 0.00 | 52 | 1019.3 |
| 20260507074044 | 70 | 247 | 6.0 | 10.0 | 0.00 | 0.00 | 0.00 | 53 | 1019.3 |
| 20260507073543 | 70 | 250 | 6.0 | 9.0 | 0.00 | 0.00 | 0.00 | 54 | 1019.1 |
| 20260507073044 | 70 | 222 | 4.0 | 8.0 | 0.00 | 0.00 | 0.00 | 54 | 1019.1 |
| 20260507072543 | 70 | 231 | 2.0 | 8.0 | 0.00 | 0.00 | 0.00 | 53 | 1019.1 |
| 20260507072041 | 70 | 230 | 3.0 | 8.0 | 0.00 | 0.00 | 0.00 | 53 | 1019.2 |
| 20260507071540 | 69 | 247 | 5.0 | 8.0 | 0.00 | 0.00 | 0.00 | 53 | 1019.2 |
| 20260507071039 | 70 | 198 | 3.0 | 8.0 | 0.00 | 0.00 | 0.00 | 53 | 1019.2 |
| 20260507070539 | 69 | 182 | 3.0 | 8.0 | 0.00 | 0.00 | 0.00 | 54 | 1019.4 |
| 20260507070058 | 69 | 231 | 4.0 | 7.0 | 0.00 | 0.00 | 0.00 | 53 | 1019.4 |
| 20260507065537 | 69 | 238 | 4.0 | 9.0 | 0.00 | 0.00 | 0.00 | 53 | 1019.4 |
| 20260507065036 | 69 | 219 | 5.0 | 9.0 | 0.00 | 0.00 | 0.00 | 52 | 1019.4 |
| 20260507064536 | 69 | 197 | 5.0 | 10.0 | 0.00 | 0.00 | 0.00 | 53 | 1019.4 |
| 20260507064033 | 69 | 232 | 5.0 | 11.0 | 0.00 | 0.00 | 0.00 | 53 | 1019.4 |
| 20260507063531 | 69 | 261 | 5.0 | 8.0 | 0.00 | 0.00 | 0.00 | 53 | 1019.3 |
| 20260507063034 | 69 | 205 | 5.0 | 8.0 | 0.00 | 0.00 | 0.00 | 54 | 1019.2 |
| 20260507062529 | 69 | 248 | 4.0 | 8.0 | 0.00 | 0.00 | 0.00 | 53 | 1019.2 |
| 20260507062028 | 68 | 209 | 5.0 | 8.0 | 0.00 | 0.00 | 0.00 | 53 | 1019.2 |
| 20260507061528 | 68 | 213 | 3.0 | 6.0 | 0.00 | 0.00 | 0.00 | 52 | 1019.1 |
| 20260507061026 | 68 | 238 | 3.0 | 5.0 | 0.00 | 0.00 | 0.00 | 53 | 1019.1 |
| 20260507060525 | 68 | 233 | 2.0 | 4.0 | 0.00 | 0.00 | 0.00 | 53 | 1019.0 |
| 20260507060024 | 68 | 269 | 2.0 | 4.0 | 0.00 | 0.00 | 0.00 | 53 | 1018.8 |
| 20260507055523 | 68 | 283 | 1.0 | 4.0 | 0.00 | 0.00 | 0.00 | 53 | 1018.8 |
| 20260507055021 | 67 | 28 | 1.0 | 5.0 | 0.00 | 0.00 | 0.00 | 54 | 1018.7 |
| 20260507054519 | 66 | 11 | 2.0 | 6.0 | 0.00 | 0.00 | 0.00 | 57 | 1018.7 |
| 20260507054022 | 66 | 355 | 3.0 | 6.0 | 0.00 | 0.00 | 0.00 | 58 | 1018.6 |
| 20260507053516 | 65 | 355 | 3.0 | 5.0 | 0.00 | 0.00 | 0.00 | 58 | 1018.5 |
| 20260507053016 | 65 | 355 | 1.0 | 5.0 | 0.00 | 0.00 | 0.00 | 59 | 1018.5 |
| 20260507052514 | 65 | 360 | 1.0 | 5.0 | 0.00 | 0.00 | 0.00 | 60 | 1018.5 |
| 20260507052012 | 64 | 13 | 2.0 | 4.0 | 0.00 | 0.00 | 0.00 | 60 | 1018.4 |
| 20260507051511 | 64 | 11 | 2.0 | 5.0 | 0.00 | 0.00 | 0.00 | 60 | 1018.4 |
| 20260507051010 | 63 | 58 | 1.0 | 6.0 | 0.00 | 0.00 | 0.00 | 61 | 1018.4 |
| 20260507050508 | 62 | 30 | 1.0 | 6.0 | 0.00 | 0.00 | 0.00 | 62 | 1018.4 |
| 20260507050024 | 62 | 73 | 3.0 | 6.0 | 0.00 | 0.00 | 0.00 | 62 | 1018.4 |
| 20260507045507 | 61 | 56 | 3.0 | 6.0 | 0.00 | 0.00 | 0.00 | 64 | 1018.4 |
| 20260507045005 | 60 | 17 | 3.0 | 5.0 | 0.00 | 0.00 | 0.00 | 65 | 1018.5 |
| 20260507044503 | 59 | 15 | 2.0 | 4.0 | 0.00 | 0.00 | 0.00 | 67 | 1018.5 |
| 20260507044002 | 58 | 40 | 2.0 | 4.0 | 0.00 | 0.00 | 0.00 | 68 | 1018.5 |
| 20260507043500 | 58 | 24 | 2.0 | 5.0 | 0.00 | 0.00 | 0.00 | 68 | 1018.4 |
| 20260507043100 | 58 | 23 | 2.0 | 4.0 | 0.00 | 0.00 | 0.00 | 68 | 1018.4 |
| 20260507042603 | 58 | 355 | 0.0 | 4.0 | 0.00 | 0.00 | 0.00 | 67 | 1018.4 |
| 20260507042057 | 58 | 57 | 1.0 | 6.0 | 0.00 | 0.00 | 0.00 | 68 | 1018.4 |
| 20260507041603 | 57 | 53 | 3.0 | 6.0 | 0.00 | 0.00 | 0.00 | 70 | 1018.5 |
| 20260507041101 | 56 | 49 | 3.0 | 6.0 | 0.00 | 0.00 | 0.00 | 71 | 1018.5 |
| 20260507040552 | 56 | 29 | 3.0 | 5.0 | 0.00 | 0.00 | 0.00 | 71 | 1018.5 |
| 20260507040052 | 56 | 37 | 3.0 | 5.0 | 0.00 | 0.00 | 0.00 | 70 | 1018.6 |
| 20260507035551 | 56 | 41 | 1.0 | 4.0 | 0.00 | 0.00 | 0.00 | 70 | 1018.5 |
| 20260507035048 | 57 | 38 | 0.0 | 5.0 | 0.00 | 0.00 | 0.00 | 69 | 1018.5 |
| 20260507034546 | 57 | 73 | 1.0 | 5.0 | 0.00 | 0.00 | 0.00 | 70 | 1018.5 |
| 20260507034045 | 56 | 49 | 3.0 | 5.0 | 0.00 | 0.00 | 0.00 | 71 | 1018.5 |
| 20260507033544 | 55 | 50 | 3.0 | 6.0 | 0.00 | 0.00 | 0.00 | 72 | 1018.4 |
| 20260507033044 | 55 | 59 | 3.0 | 6.0 | 0.00 | 0.00 | 0.00 | 73 | 1018.4 |
| 20260507032543 | 55 | 27 | 3.0 | 5.0 | 0.00 | 0.00 | 0.00 | 72 | 1018.4 |
| 20260507032043 | 56 | 36 | 2.0 | 4.0 | 0.00 | 0.00 | 0.00 | 70 | 1018.3 |
| 20260507031543 | 57 | 71 | 2.0 | 4.0 | 0.00 | 0.00 | 0.00 | 71 | 1018.3 |
| 20260507031041 | 56 | 62 | 2.0 | 4.0 | 0.00 | 0.00 | 0.00 | 72 | 1018.3 |
| 20260507030542 | 56 | 68 | 1.0 | 3.0 | 0.00 | 0.00 | 0.00 | 71 | 1018.3 |
| 20260507030041 | 56 | 63 | 1.0 | 3.0 | 0.00 | 0.00 | 0.00 | 71 | 1018.3 |
| 20260507025540 | 56 | 59 | 2.0 | 3.0 | 0.00 | 0.00 | 0.00 | 72 | 1018.2 |
| 20260507025041 | 55 | 44 | 1.0 | 5.0 | 0.00 | 0.00 | 0.00 | 72 | 1018.2 |
| 20260507024540 | 55 | 37 | 2.0 | 5.0 | 0.00 | 0.00 | 0.00 | 73 | 1018.3 |
| 20260507024040 | 55 | 40 | 3.0 | 5.0 | 0.00 | 0.00 | 0.00 | 72 | 1018.3 |
| 20260507023539 | 55 | 31 | 2.0 | 4.0 | 0.00 | 0.00 | 0.00 | 72 | 1018.3 |
| 20260507023039 | 55 | 57 | 2.0 | 4.0 | 0.00 | 0.00 | 0.00 | 71 | 1018.3 |
| 20260507022539 | 56 | 44 | 2.0 | 4.0 | 0.00 | 0.00 | 0.00 | 71 | 1018.2 |
| 20260507022039 | 56 | 53 | 2.0 | 4.0 | 0.00 | 0.00 | 0.00 | 70 | 1018.3 |
| 20260507021539 | 56 | 73 | 1.0 | 3.0 | 0.00 | 0.00 | 0.00 | 69 | 1018.3 |
| 20260507021038 | 56 | 77 | 1.0 | 3.0 | 0.00 | 0.00 | 0.00 | 69 | 1018.2 |
| 20260507020538 | 57 | 94 | 0.0 | 4.0 | 0.00 | 0.00 | 0.00 | 68 | 1018.2 |
| 20260507020045 | 57 | 94 | 1.0 | 6.0 | 0.00 | 0.00 | 0.00 | 68 | 1018.1 |
| 20260507015537 | 56 | 102 | 2.0 | 6.0 | 0.00 | 0.00 | 0.00 | 68 | 1018.1 |
| 20260507015037 | 56 | 83 | 4.0 | 6.0 | 0.00 | 0.00 | 0.00 | 69 | 1018.1 |
| 20260507014542 | 56 | 86 | 3.0 | 6.0 | 0.00 | 0.00 | 0.00 | 69 | 1018.1 |
| 20260507014037 | 55 | 73 | 4.0 | 7.0 | 0.00 | 0.00 | 0.00 | 70 | 1018.2 |
| 20260507013536 | 55 | 63 | 5.0 | 7.0 | 0.00 | 0.00 | 0.00 | 70 | 1018.0 |
| 20260507013043 | 55 | 40 | 4.0 | 6.0 | 0.00 | 0.00 | 0.00 | 71 | 1017.9 |
| 20260507012535 | 55 | 17 | 3.0 | 8.0 | 0.00 | 0.00 | 0.00 | 71 | 1017.9 |
| 20260507012034 | 55 | 34 | 3.0 | 9.0 | 0.00 | 0.00 | 0.00 | 71 | 1017.8 |
| 20260507011541 | 55 | 38 | 5.0 | 9.0 | 0.00 | 0.00 | 0.00 | 71 | 1017.5 |
| 20260507011033 | 55 | 46 | 5.0 | 8.0 | 0.00 | 0.00 | 0.00 | 71 | 1017.4 |
| 20260507010532 | 55 | 24 | 4.0 | 6.0 | 0.00 | 0.00 | 0.00 | 70 | 1017.3 |
| 20260507010041 | 55 | 32 | 5.0 | 8.0 | 0.00 | 0.00 | 0.00 | 70 | 1017.4 |
| 20260507005533 | 55 | 38 | 4.0 | 8.0 | 0.00 | 0.00 | 0.00 | 70 | 1017.3 |
| 20260507005031 | 55 | 29 | 3.0 | 6.0 | 0.00 | 0.00 | 0.00 | 70 | 1017.5 |
| 20260507004530 | 55 | 46 | 4.0 | 6.0 | 0.00 | 0.00 | 0.00 | 70 | 1017.4 |
| 20260507004030 | 55 | 44 | 4.0 | 6.0 | 0.00 | 0.00 | 0.00 | 71 | 1017.4 |
| 20260507003530 | 55 | 30 | 4.0 | 6.0 | 0.00 | 0.00 | 0.00 | 70 | 1017.3 |
| 20260507003029 | 56 | 28 | 4.0 | 6.0 | 0.00 | 0.00 | 0.00 | 69 | 1017.3 |
| 20260507002528 | 56 | 49 | 3.0 | 6.0 | 0.00 | 0.00 | 0.00 | 69 | 1017.3 |
| 20260507002027 | 56 | 42 | 3.0 | 7.0 | 0.00 | 0.00 | 0.00 | 69 | 1017.3 |
| 20260507001537 | 56 | 49 | 4.0 | 9.0 | 0.00 | 0.00 | 0.00 | 70 | 1017.4 |
| 20260507001026 | 56 | 46 | 6.0 | 9.0 | 0.00 | 0.00 | 0.00 | 70 | 1017.5 |
| 20260507000525 | 56 | 34 | 5.0 | 9.0 | 0.00 | 0.00 | 0.00 | 70 | 1017.5 |
| 20260507000031 | 56 | 34 | 4.0 | 6.0 | 0.00 | 0.00 | 0.00 | 69 | 1017.6 |
| 20260506235523 | 56 | 44 | 3.0 | 7.0 | 0.00 | 0.00 | 0.00 | 69 | 1017.6 |
| 20260506235023 | 56 | 40 | 5.0 | 6.0 | 0.00 | 0.00 | 0.00 | 69 | 1017.7 |
| 20260506234522 | 56 | 40 | 4.0 | 7.0 | 0.00 | 0.00 | 0.00 | 69 | 1017.8 |
| 20260506234022 | 56 | 36 | 5.0 | 7.0 | 0.00 | 0.00 | 0.00 | 69 | 1017.9 |
| 20260506233520 | 56 | 38 | 3.0 | 6.0 | 0.00 | 0.00 | 0.00 | 69 | 1018.0 |
| 20260506233019 | 56 | 32 | 4.0 | 6.0 | 0.00 | 0.00 | 0.00 | 68 | 1018.0 |
| 20260506232517 | 57 | 22 | 3.0 | 4.0 | 0.00 | 0.00 | 0.00 | 67 | 1018.1 |
| 20260506232017 | 57 | 39 | 2.0 | 6.0 | 0.00 | 0.00 | 0.00 | 66 | 1018.1 |
| 20260506231519 | 57 | 54 | 3.0 | 6.0 | 0.00 | 0.00 | 0.00 | 67 | 1018.0 |
| 20260506231016 | 57 | 41 | 4.0 | 6.0 | 0.00 | 0.00 | 0.00 | 67 | 1018.1 |
| 20260506230516 | 57 | 25 | 3.0 | 5.0 | 0.00 | 0.00 | 0.00 | 67 | 1018.2 |
| 20260506230016 | 57 | 35 | 3.0 | 5.0 | 0.00 | 0.00 | 0.00 | 68 | 1018.2 |
| 20260506225516 | 57 | 30 | 3.0 | 5.0 | 0.00 | 0.00 | 0.00 | 68 | 1018.2 |
| 20260506225013 | 57 | 30 | 3.0 | 5.0 | 0.00 | 0.00 | 0.00 | 67 | 1018.2 |
| 20260506224514 | 58 | 38 | 3.0 | 4.0 | 0.00 | 0.00 | 0.00 | 65 | 1018.3 |
| 20260506224009 | 59 | 74 | 2.0 | 4.0 | 0.00 | 0.00 | 0.00 | 63 | 1018.2 |
| 20260506223509 | 60 | 76 | 2.0 | 4.0 | 0.00 | 0.00 | 0.00 | 62 | 1018.3 |
| 20260506223009 | 61 | 76 | 1.0 | 4.0 | 0.00 | 0.00 | 0.00 | 61 | 1018.3 |
| 20260506222509 | 60 | 78 | 2.0 | 4.0 | 0.00 | 0.00 | 0.00 | 62 | 1018.3 |
| 20260506222009 | 60 | 70 | 2.0 | 6.0 | 0.00 | 0.00 | 0.00 | 62 | 1018.3 |
| 20260506221508 | 59 | 53 | 4.0 | 6.0 | 0.00 | 0.00 | 0.00 | 63 | 1018.4 |
| 20260506221008 | 59 | 38 | 3.0 | 5.0 | 0.00 | 0.00 | 0.00 | 64 | 1018.4 |
| 20260506220507 | 59 | 46 | 3.0 | 5.0 | 0.00 | 0.00 | 0.00 | 65 | 1018.4 |
| 20260506220007 | 59 | 32 | 3.0 | 5.0 | 0.00 | 0.00 | 0.00 | 65 | 1018.3 |
| 20260506215507 | 59 | 53 | 3.0 | 5.0 | 0.00 | 0.00 | 0.00 | 65 | 1018.3 |
| 20260506215006 | 59 | 38 | 3.0 | 7.0 | 0.00 | 0.00 | 0.00 | 65 | 1018.4 |
| 20260506214505 | 59 | 46 | 4.0 | 5.0 | 0.00 | 0.00 | 0.00 | 65 | 1018.3 |
| 20260506214005 | 59 | 43 | 3.0 | 5.0 | 0.00 | 0.00 | 0.00 | 65 | 1018.3 |
| 20260506213507 | 59 | 35 | 3.0 | 6.0 | 0.00 | 0.00 | 0.00 | 66 | 1018.3 |
| 20260506213003 | 59 | 30 | 3.0 | 5.0 | 0.00 | 0.00 | 0.00 | 65 | 1018.4 |
| 20260506212502 | 60 | 17 | 3.0 | 4.0 | 0.00 | 0.00 | 0.00 | 64 | 1018.5 |
| 20260506212101 | 61 | 28 | 1.0 | 3.0 | 0.00 | 0.00 | 0.00 | 63 | 1018.5 |
| 20260506211559 | 61 | 59 | 0.0 | 0.0 | 0.00 | 0.00 | 0.00 | 62 | 1018.5 |
| 20260506211104 | 62 | 56 | 0.0 | 2.0 | 0.00 | 0.00 | 0.00 | 62 | 1018.5 |
| 20260506210559 | 62 | 54 | 0.0 | 2.0 | 0.00 | 0.00 | 0.00 | 62 | 1018.5 |
| 20260506210057 | 61 | 48 | 0.0 | 2.0 | 0.00 | 0.00 | 0.00 | 62 | 1018.5 |
| 20260506205557 | 62 | 51 | 0.0 | 2.0 | 0.00 | 0.00 | 0.00 | 61 | 1018.6 |
| 20260506205057 | 63 | 53 | 0.0 | 2.0 | 0.00 | 0.00 | 0.00 | 59 | 1018.6 |
| 20260506204557 | 63 | 46 | 0.0 | 0.0 | 0.00 | 0.00 | 0.00 | 59 | 1018.6 |
| 20260506204056 | 62 | 34 | 0.0 | 0.0 | 0.00 | 0.00 | 0.00 | 59 | 1018.7 |
| 20260506203556 | 62 | 33 | 0.0 | 0.0 | 0.00 | 0.00 | 0.00 | 60 | 1018.7 |
| 20260506203056 | 62 | 34 | 0.0 | 0.0 | 0.00 | 0.00 | 0.00 | 60 | 1018.7 |
| 20260506202555 | 62 | 32 | 0.0 | 0.0 | 0.00 | 0.00 | 0.00 | 60 | 1018.7 |
| 20260506202056 | 63 | 30 | 0.0 | 0.0 | 0.00 | 0.00 | 0.00 | 59 | 1018.7 |
| 20260506201555 | 64 | 26 | 0.0 | 0.0 | 0.00 | 0.00 | 0.00 | 57 | 1018.7 |
| 20260506201054 | 65 | 26 | 0.0 | 1.0 | 0.00 | 0.00 | 0.00 | 55 | 1018.6 |
| 20260506200554 | 65 | 26 | 0.0 | 1.0 | 0.00 | 0.00 | 0.00 | 53 | 1018.5 |
| 20260506200054 | 65 | 24 | 0.0 | 3.0 | 0.00 | 0.00 | 0.00 | 53 | 1018.5 |
| 20260506195553 | 65 | 24 | 1.0 | 3.0 | 0.00 | 0.00 | 0.00 | 51 | 1018.5 |
| 20260506195053 | 65 | 28 | 1.0 | 3.0 | 0.00 | 0.00 | 0.00 | 53 | 1018.5 |
| 20260506194552 | 65 | 28 | 0.0 | 3.0 | 0.00 | 0.00 | 0.00 | 53 | 1018.4 |
| 20260506194050 | 65 | 20 | 1.0 | 4.0 | 0.00 | 0.00 | 0.00 | 52 | 1018.4 |
| 20260506193551 | 65 | 22 | 1.0 | 4.0 | 0.00 | 0.00 | 0.00 | 53 | 1018.3 |
| 20260506193055 | 65 | 24 | 1.0 | 3.0 | 0.00 | 0.00 | 0.00 | 52 | 1018.3 |
| 20260506192549 | 66 | 28 | 1.0 | 3.0 | 0.00 | 0.00 | 0.00 | 52 | 1018.2 |
| 20260506192049 | 67 | 20 | 0.0 | 2.0 | 0.00 | 0.00 | 0.00 | 50 | 1018.1 |
| 20260506191553 | 67 | 19 | 0.0 | 2.0 | 0.00 | 0.00 | 0.00 | 49 | 1018.1 |
| 20260506191053 | 68 | 12 | 0.0 | 2.0 | 0.00 | 0.00 | 0.00 | 47 | 1018.1 |
| 20260506190548 | 68 | 17 | 0.0 | 3.0 | 0.00 | 0.00 | 0.00 | 46 | 1017.9 |
| 20260506190050 | 68 | 18 | 1.0 | 3.0 | 0.00 | 0.00 | 0.00 | 46 | 1018.0 |
| 20260506185548 | 68 | 25 | 1.0 | 4.0 | 0.00 | 0.00 | 0.00 | 46 | 1017.9 |
| 20260506185048 | 68 | 360 | 1.0 | 4.0 | 0.00 | 0.00 | 0.00 | 45 | 1018.0 |
| 20260506184548 | 68 | 350 | 2.0 | 4.0 | 0.00 | 0.00 | 0.00 | 45 | 1017.9 |
| 20260506184048 | 68 | 350 | 1.0 | 3.0 | 0.00 | 0.00 | 0.00 | 45 | 1017.8 |
| 20260506183548 | 68 | 322 | 0.0 | 3.0 | 0.00 | 0.00 | 0.00 | 45 | 1017.8 |
| 20260506183051 | 69 | 337 | 0.0 | 3.0 | 0.00 | 0.00 | 0.00 | 45 | 1017.7 |
| 20260506182548 | 68 | 342 | 2.0 | 3.0 | 0.00 | 0.00 | 0.00 | 45 | 1017.6 |
| 20260506182048 | 68 | 335 | 1.0 | 4.0 | 0.00 | 0.00 | 0.00 | 46 | 1017.5 |
| 20260506181600 | 69 | 336 | 1.0 | 4.0 | 0.00 | 0.00 | 0.00 | 46 | 1017.5 |
| 20260506181046 | 69 | 334 | 1.0 | 4.0 | 0.00 | 0.00 | 0.00 | 46 | 1017.5 |
| 20260506180550 | 69 | 323 | 2.0 | 4.0 | 0.00 | 0.00 | 0.00 | 46 | 1017.5 |
| 20260506180048 | 69 | 336 | 2.0 | 4.0 | 0.00 | 0.00 | 0.00 | 46 | 1017.5 |
| 20260506175546 | 69 | 346 | 2.0 | 5.0 | 0.00 | 0.00 | 0.00 | 46 | 1017.5 |
| 20260506175046 | 69 | 346 | 2.0 | 5.0 | 0.00 | 0.00 | 0.00 | 46 | 1017.5 |
| 20260506174644 | 69 | 323 | 3.0 | 7.0 | 0.00 | 0.00 | 0.00 | 46 | 1017.5 |
| 20260506174044 | 69 | 317 | 2.0 | 5.0 | 0.00 | 0.00 | 0.00 | 46 | 1017.4 |
| 20260506173544 | 69 | 280 | 2.0 | 5.0 | 0.00 | 0.00 | 0.00 | 46 | 1017.3 |
| 20260506173111 | 69 | 280 | 3.0 | 8.0 | 0.00 | 0.00 | 0.00 | 46 | 1017.3 |
| 20260506172543 | 70 | 262 | 4.0 | 8.0 | 0.00 | 0.00 | 0.00 | 46 | 1017.3 |
| 20260506172043 | 70 | 288 | 2.0 | 6.0 | 0.00 | 0.00 | 0.00 | 46 | 1017.4 |
| 20260506171545 | 70 | 273 | 4.0 | 6.0 | 0.00 | 0.00 | 0.00 | 45 | 1017.4 |
| 20260506171043 | 70 | 298 | 3.0 | 9.0 | 0.00 | 0.00 | 0.00 | 45 | 1017.3 |
| 20260506170543 | 70 | 271 | 6.0 | 9.0 | 0.00 | 0.00 | 0.00 | 44 | 1017.3 |
| 20260506165543 | 71 | 282 | 4.0 | 8.0 | 0.00 | 0.00 | 0.00 | 44 | 1017.3 |
| 20260506165043 | 71 | 259 | 4.0 | 9.0 | 0.00 | 0.00 | 0.00 | 44 | 1017.2 |
| 20260506164542 | 71 | 274 | 5.0 | 9.0 | 0.00 | 0.00 | 0.00 | 43 | 1017.2 |
| 20260506164043 | 71 | 246 | 3.0 | 10.0 | 0.00 | 0.00 | 0.00 | 43 | 1017.3 |
| 20260506163543 | 71 | 273 | 7.0 | 10.0 | 0.00 | 0.00 | 0.00 | 42 | 1017.3 |
| 20260506163052 | 71 | 251 | 6.0 | 11.0 | 0.00 | 0.00 | 0.00 | 42 | 1017.3 |
| 20260506162543 | 71 | 257 | 7.0 | 11.0 | 0.00 | 0.00 | 0.00 | 42 | 1017.2 |
| 20260506162045 | 72 | 261 | 7.0 | 13.0 | 0.00 | 0.00 | 0.00 | 41 | 1017.2 |
| 20260506161542 | 72 | 285 | 9.0 | 13.0 | 0.00 | 0.00 | 0.00 | 41 | 1017.1 |
| 20260506161140 | 72 | 281 | 7.0 | 11.0 | 0.00 | 0.00 | 0.00 | 40 | 1017.1 |
| 20260506160540 | 72 | 305 | 8.0 | 12.0 | 0.00 | 0.00 | 0.00 | 40 | 1017.2 |
| 20260506160042 | 72 | 288 | 7.0 | 12.0 | 0.00 | 0.00 | 0.00 | 40 | 1017.2 |
| 20260506155539 | 72 | 259 | 5.0 | 11.0 | 0.00 | 0.00 | 0.00 | 40 | 1017.1 |
| 20260506155036 | 72 | 267 | 8.0 | 11.0 | 0.00 | 0.00 | 0.00 | 40 | 1017.1 |
| 20260506154538 | 72 | 253 | 7.0 | 12.0 | 0.00 | 0.00 | 0.00 | 40 | 1017.1 |
| 20260506154034 | 73 | 288 | 8.0 | 13.0 | 0.00 | 0.00 | 0.00 | 39 | 1017.3 |
| 20260506153531 | 73 | 279 | 7.0 | 13.0 | 0.00 | 0.00 | 0.00 | 39 | 1017.4 |
| 20260506153030 | 73 | 256 | 7.0 | 14.0 | 0.00 | 0.00 | 0.00 | 39 | 1017.3 |
| 20260506152529 | 73 | 281 | 10.0 | 14.0 | 0.00 | 0.00 | 0.00 | 39 | 1017.4 |
| 20260506152029 | 72 | 260 | 10.0 | 15.0 | 0.00 | 0.00 | 0.00 | 40 | 1017.4 |
| 20260506151528 | 72 | 271 | 11.0 | 16.0 | 0.00 | 0.00 | 0.00 | 39 | 1017.4 |
| 20260506151029 | 73 | 267 | 11.0 | 15.0 | 0.00 | 0.00 | 0.00 | 39 | 1017.3 |
| 20260506150527 | 73 | 293 | 8.0 | 15.0 | 0.00 | 0.00 | 0.00 | 41 | 1017.3 |
| 20260506150026 | 73 | 259 | 9.0 | 16.0 | 0.00 | 0.00 | 0.00 | 40 | 1017.3 |
| 20260506145530 | 73 | 303 | 12.0 | 16.0 | 0.00 | 0.00 | 0.00 | 40 | 1017.3 |
| 20260506145026 | 73 | 264 | 7.0 | 17.0 | 0.00 | 0.00 | 0.00 | 40 | 1017.3 |
| 20260506144524 | 73 | 252 | 10.0 | 17.0 | 0.00 | 0.00 | 0.00 | 41 | 1017.3 |
| 20260506144026 | 73 | 265 | 9.0 | 14.0 | 0.00 | 0.00 | 0.00 | 41 | 1017.3 |
| 20260506143523 | 73 | 279 | 11.0 | 14.0 | 0.00 | 0.00 | 0.00 | 41 | 1017.3 |
| 20260506143026 | 73 | 286 | 11.0 | 15.0 | 0.00 | 0.00 | 0.00 | 42 | 1017.3 |
| 20260506142521 | 74 | 222 | 9.0 | 15.0 | 0.00 | 0.00 | 0.00 | 41 | 1017.3 |
| 20260506142021 | 73 | 236 | 8.0 | 15.0 | 0.00 | 0.00 | 0.00 | 42 | 1017.3 |
| 20260506141521 | 73 | 249 | 10.0 | 16.0 | 0.00 | 0.00 | 0.00 | 42 | 1017.3 |
| 20260506141020 | 73 | 271 | 11.0 | 16.0 | 0.00 | 0.00 | 0.00 | 43 | 1017.3 |
| 20260506140520 | 74 | 240 | 9.0 | 15.0 | 0.00 | 0.00 | 0.00 | 42 | 1017.4 |
| 20260506140021 | 73 | 222 | 9.0 | 15.0 | 0.00 | 0.00 | 0.00 | 43 | 1017.3 |
| 20260506135518 | 73 | 240 | 10.0 | 15.0 | 0.00 | 0.00 | 0.00 | 43 | 1017.3 |
| 20260506135017 | 73 | 239 | 10.0 | 19.0 | 0.00 | 0.00 | 0.00 | 44 | 1017.3 |
| 20260506134517 | 73 | 247 | 10.0 | 19.0 | 0.00 | 0.00 | 0.00 | 44 | 1017.3 |
| 20260506134015 | 74 | 250 | 8.0 | 15.0 | 0.00 | 0.00 | 0.00 | 43 | 1017.3 |
| 20260506133518 | 74 | 245 | 10.0 | 16.0 | 0.00 | 0.00 | 0.00 | 44 | 1017.3 |
| 20260506133015 | 74 | 301 | 10.0 | 17.0 | 0.00 | 0.00 | 0.00 | 44 | 1017.2 |
| 20260506132513 | 74 | 263 | 11.0 | 17.0 | 0.00 | 0.00 | 0.00 | 44 | 1017.3 |
| 20260506132017 | 75 | 251 | 8.0 | 14.0 | 0.00 | 0.00 | 0.00 | 41 | 1017.2 |
| 20260506131514 | 74 | 253 | 10.0 | 14.0 | 0.00 | 0.00 | 0.00 | 39 | 1017.2 |
| 20260506131015 | 74 | 228 | 9.0 | 17.0 | 0.00 | 0.00 | 0.00 | 38 | 1017.2 |
| 20260506130513 | 74 | 259 | 12.0 | 17.0 | 0.00 | 0.00 | 0.00 | 39 | 1017.3 |
| 20260506130012 | 75 | 256 | 8.0 | 12.0 | 0.00 | 0.00 | 0.00 | 40 | 1017.3 |
| 20260506125509 | 75 | 267 | 7.0 | 12.0 | 0.00 | 0.00 | 0.00 | 41 | 1017.2 |
| 20260506125009 | 74 | 271 | 8.0 | 14.0 | 0.00 | 0.00 | 0.00 | 40 | 1017.4 |
| 20260506124508 | 74 | 213 | 9.0 | 14.0 | 0.00 | 0.00 | 0.00 | 39 | 1017.5 |
| 20260506124007 | 75 | 268 | 11.0 | 15.0 | 0.00 | 0.00 | 0.00 | 41 | 1017.5 |
| 20260506123508 | 74 | 239 | 9.0 | 16.0 | 0.00 | 0.00 | 0.00 | 42 | 1017.5 |
| 20260506123007 | 74 | 254 | 11.0 | 16.0 | 0.00 | 0.00 | 0.00 | 42 | 1017.6 |
| 20260506122506 | 74 | 270 | 9.0 | 15.0 | 0.00 | 0.00 | 0.00 | 42 | 1017.5 |
| 20260506122006 | 75 | 242 | 9.0 | 15.0 | 0.00 | 0.00 | 0.00 | 41 | 1017.4 |
| 20260506121506 | 74 | 256 | 7.0 | 15.0 | 0.00 | 0.00 | 0.00 | 41 | 1017.5 |
| 20260506121004 | 74 | 233 | 11.0 | 15.0 | 0.00 | 0.00 | 0.00 | 40 | 1017.5 |
| 20260506120506 | 74 | 262 | 10.0 | 16.0 | 0.00 | 0.00 | 0.00 | 39 | 1017.6 |
| 20260506120003 | 74 | 267 | 11.0 | 17.0 | 0.00 | 0.00 | 0.00 | 40 | 1017.6 |
| 20260506115504 | 74 | 249 | 12.0 | 17.0 | 0.00 | 0.00 | 0.00 | 40 | 1017.6 |
| 20260506115002 | 74 | 245 | 8.0 | 16.0 | 0.00 | 0.00 | 0.00 | 42 | 1017.6 |